GW2437 Weather Reports


time (UTC)temp
C
wind
direction
speed
KPH
gust
KPH
rain 1hr
cm
rain 24hr
cm
rain mn
cm
humidity
%
barometer
mb
20260502194618 23 49 4.8 11.3 0.00 0.00 0.00 42 1018.9
20260502194115 23 328 3.2 9.7 0.00 0.00 0.00 43 1018.6
20260502193611 23 20 14.5 17.7 0.00 0.00 0.00 42 1018.7
20260502193108 23 345 4.8 17.7 0.00 0.00 0.00 45 1018.8
20260502192604 23 44 3.2 11.3 0.00 0.00 0.00 46 1018.9
20260502192102 23 26 6.4 9.7 0.00 0.00 0.00 47 1018.9
20260502191558 23 50 4.8 14.5 0.00 0.00 0.00 44 1019.1
20260502191056 23 62 3.2 14.5 0.00 0.00 0.00 48 1019.0
20260502190553 23 354 4.8 9.7 0.00 0.00 0.00 47 1019.0
20260502190050 23 3 11.3 14.5 0.00 0.00 0.00 45 1018.8
20260502185544 23 130 4.8 11.3 0.00 0.00 0.00 47 1018.9
20260502185042 23 57 8.0 14.5 0.00 0.00 0.00 46 1019.2
20260502184538 23 33 11.3 29.0 0.00 0.00 0.00 46 1019.1
20260502184034 22 0 4.8 12.9 0.00 0.00 0.00 48 1019.2
20260502183530 22 2 6.4 14.5 0.00 0.00 0.00 47 1019.1
20260502183026 22 79 4.8 9.7 0.00 0.00 0.00 48 1019.2
20260502182521 22 336 8.0 11.3 0.00 0.00 0.00 52 1019.4
20260502182018 22 356 14.5 22.5 0.00 0.00 0.00 48 1019.6
20260502181516 22 50 11.3 11.3 0.00 0.00 0.00 47 1019.4
20260502181015 22 37 4.8 9.7 0.00 0.00 0.00 52 1019.5
20260502180511 22 161 3.2 20.9 0.00 0.00 0.00 51 1019.3
20260502170430 21 4 8.0 11.3 0.00 0.00 0.00 58 1019.8
20260502163913 20 8 4.8 9.7 0.00 0.00 0.00 63 1019.9
20260502163410 20 53 11.3 14.5 0.00 0.00 0.00 65 1019.9
20260502162908 20 3 9.7 16.1 0.00 0.00 0.00 66 1019.9
20260502162404 20 20 4.8 16.1 0.00 0.00 0.00 67 1020.1
20260502161901 20 31 16.1 22.5 0.00 0.00 0.00 65 1019.9
20260502161357 20 59 3.2 11.3 0.00 0.00 0.00 69 1020.0
20260502160855 20 49 4.8 16.1 0.00 0.00 0.00 66 1020.0
20260502160353 19 32 3.2 22.5 0.00 0.00 0.00 69 1020.1
20260502152328 18 18 4.8 9.7 0.00 0.00 0.00 79 1020.0
20260502151826 18 8 1.6 9.7 0.00 0.00 0.00 78 1019.9
20260502151322 18 351 4.8 9.7 0.00 0.00 0.00 78 1019.7
20260502150820 18 305 3.2 9.7 0.00 0.00 0.00 80 1019.6
20260502150316 17 20 9.7 12.9 0.00 0.00 0.00 81 1019.9
20260502130705 12 49 1.6 4.8 0.00 0.00 0.00 99 1018.7
20260502130203 12 325 9.7 12.9 0.00 0.00 0.00 99 1018.6
20260502123648 11 7 4.8 9.7 0.00 0.00 0.00 99 1018.2
20260502123145 11 49 0.0 1.6 0.00 0.00 0.00 99 1018.0
20260502122641 11 63 0.0 3.2 0.00 0.00 0.00 99 1018.1
20260502122138 11 30 0.0 0.0 0.00 0.00 0.00 99 1018.1
20260502121636 11 66 0.0 1.6 0.00 0.00 0.00 99 1018.1
20260502121133 11 28 0.0 0.0 0.00 0.00 0.00 99 1017.9
20260502120630 11 35 0.0 3.2 0.00 0.00 0.00 99 1017.7
20260502120127 11 43 0.0 1.6 0.00 0.00 0.00 99 1017.8
20260502115624 11 31 1.6 3.2 0.00 0.00 0.00 99 1017.5
20260502115120 11 54 0.0 1.6 0.00 0.00 0.00 99 1017.6
20260502114616 10 68 0.0 3.2 0.00 0.00 0.00 99 1017.5
20260502114114 11 29 0.0 3.2 0.00 0.00 0.00 99 1017.5
20260502113611 10 49 0.0 1.6 0.00 0.00 0.00 99 1017.3
20260502113110 11 12 3.2 3.2 0.00 0.00 0.00 99 1017.3
20260502112607 10 36 1.6 3.2 0.00 0.00 0.00 99 1017.6
20260502112104 10 66 0.0 1.6 0.00 0.00 0.00 99 1017.3
20260502111602 11 54 0.0 3.2 0.00 0.00 0.00 99 1017.2
20260502111059 10 48 1.6 3.2 0.00 0.00 0.00 99 1017.2
20260502110556 10 352 3.2 8.0 0.00 0.00 0.00 99 1016.9
20260502110054 10 12 6.4 8.0 0.00 0.00 0.00 99 1016.9
20260502105551 10 42 1.6 9.7 0.00 0.00 0.00 99 1016.8
20260502105048 10 327 3.2 8.0 0.00 0.00 0.00 99 1016.8
20260502104545 10 20 1.6 3.2 0.00 0.00 0.00 99 1016.7
20260502104043 10 46 1.6 4.8 0.00 0.00 0.00 99 1016.7
20260502103540 10 358 3.2 9.7 0.00 0.00 0.00 99 1016.8
20260502103038 10 10 1.6 3.2 0.00 0.00 0.00 99 1016.8
20260502102534 10 358 3.2 3.2 0.00 0.00 0.00 99 1016.7
20260502102032 10 69 0.0 1.6 0.00 0.00 0.00 99 1016.6
20260502101529 10 45 1.6 3.2 0.00 0.00 0.00 99 1016.6
20260502101028 10 11 0.0 3.2 0.00 0.00 0.00 99 1016.4
20260502100526 10 19 1.6 1.6 0.00 0.00 0.00 99 1016.1
20260502091500 10 3 3.2 8.0 0.00 0.00 0.00 99 1015.8
20260502090958 10 42 0.0 1.6 0.00 0.00 0.00 99 1015.6
20260502090454 10 81 0.0 3.2 0.00 0.00 0.00 99 1015.7
20260502071349 11 51 1.6 8.0 0.00 0.00 0.00 99 1015.3
20260502070847 11 339 4.8 9.7 0.00 0.00 0.00 99 1015.4
20260502070344 11 29 4.8 8.0 0.00 0.00 0.00 99 1015.3
20260502065843 11 65 6.4 11.3 0.00 0.00 0.00 99 1015.4
20260502065341 11 119 4.8 4.8 0.00 0.00 0.00 99 1015.3
20260502064839 11 84 8.0 9.7 0.00 0.00 0.00 99 1015.3
20260502064337 11 87 1.6 12.9 0.00 0.00 0.00 99 1015.6
20260502063833 11 32 8.0 11.3 0.00 0.00 0.00 99 1015.5
20260502063331 11 34 3.2 12.9 0.00 0.00 0.00 99 1015.7
20260502062828 11 104 4.8 17.7 0.00 0.00 0.00 99 1015.9
20260502062326 11 116 1.6 3.2 0.00 0.00 0.00 99 1015.9
20260502061825 11 29 3.2 4.8 0.00 0.00 0.00 99 1015.7
20260502061322 11 54 4.8 12.9 0.00 0.00 0.00 99 1015.8
20260502060817 11 81 4.8 8.0 0.00 0.00 0.00 99 1015.9
20260502060312 11 38 0.0 4.8 0.00 0.00 0.00 99 1016.1
20260502055811 11 34 12.9 16.1 0.00 0.00 0.00 99 1016.0
20260502055308 11 11 6.4 8.0 0.00 0.00 0.00 99 1016.2
20260502054808 11 62 3.2 8.0 0.00 0.00 0.00 99 1015.9
20260502054305 11 2 9.7 11.3 0.00 0.00 0.00 99 1016.1
20260502053802 11 97 1.6 11.3 0.00 0.00 0.00 99 1016.1
20260502053259 11 87 1.6 9.7 0.00 0.00 0.00 99 1016.2
20260502052757 11 49 3.2 9.7 0.00 0.00 0.00 99 1016.2
20260502052255 11 18 3.2 4.8 0.00 0.00 0.00 99 1016.2
20260502051752 11 88 4.8 11.3 0.00 0.00 0.00 99 1016.2
20260502051251 11 2 3.2 4.8 0.00 0.00 0.00 99 1016.1
20260502050747 11 76 3.2 9.7 0.00 0.00 0.00 99 1016.2
20260502050243 12 74 1.6 12.9 0.00 0.00 0.00 99 1016.1
20260502045740 12 318 12.9 16.1 0.00 6.38 6.38 99 1015.8
20260502045237 12 19 3.2 14.5 0.00 6.38 6.38 99 1015.9
20260502044734 12 7 3.2 14.5 0.00 6.38 6.38 99 1015.9
20260502044230 12 324 8.0 17.7 0.00 6.38 6.38 99 1015.5
20260502043728 12 355 8.0 11.3 0.18 6.38 6.38 99 1015.3
20260502043225 12 54 4.8 9.7 0.13 6.35 6.35 99 1014.8
20260502042724 12 62 1.6 8.0 0.13 6.35 6.35 99 1015.2
20260502042222 12 355 6.4 12.9 0.18 6.32 6.32 99 1014.9
20260502041719 12 350 3.2 12.9 0.30 6.32 6.32 99 1014.6
20260502041216 12 44 1.6 4.8 0.13 6.30 6.30 99 1014.5
20260502040713 12 40 1.6 9.7 0.18 6.27 6.27 99 1014.4
20260502040210 12 11 3.2 9.7 0.18 6.27 6.27 99 1014.5
20260502035706 12 68 3.2 16.1 0.00 6.25 6.25 99 1014.8
20260502035203 12 26 1.6 11.3 0.13 6.25 6.25 99 1015.0
20260502034701 12 344 8.0 12.9 0.13 6.25 6.25 99 1015.1
20260502034159 12 320 4.8 9.7 0.18 6.22 6.22 99 1015.3
20260502033657 12 37 1.6 11.3 0.30 6.22 6.22 99 1015.0
20260502033154 12 24 1.6 11.3 0.13 6.20 6.20 99 1014.8
20260502032650 12 29 0.0 4.8 0.00 6.17 6.17 99 1014.7
20260502032146 12 23 1.6 9.7 0.00 6.17 6.17 99 1014.9
20260502031645 12 2 4.8 11.3 0.00 6.17 6.17 99 1014.7
20260502031142 12 39 0.0 4.8 0.00 6.17 6.17 99 1014.6
20260502030641 12 23 4.8 8.0 0.00 6.17 6.17 99 1014.6
20260502030139 12 33 3.2 8.0 0.18 6.17 6.17 99 1014.4
20260502025635 12 12 3.2 4.8 0.18 6.17 6.17 99 1014.3
20260502025133 12 1 0.0 4.8 0.00 6.15 6.15 99 1014.4
20260502024631 12 11 3.2 11.3 0.18 6.15 6.15 99 1014.2
20260502024129 12 29 3.2 12.9 0.30 6.15 6.15 99 1014.2
20260502023627 12 39 4.8 8.0 0.13 6.12 6.12 99 1014.2
20260502023123 12 33 0.0 3.2 0.00 6.10 6.10 99 1014.5
20260502022620 12 334 8.0 11.3 0.00 6.10 6.10 99 1014.3
20260502022118 12 6 3.2 4.8 0.00 6.10 6.10 99 1013.9
20260502021615 12 43 1.6 9.7 0.00 6.10 6.10 99 1013.5
20260502021112 12 34 6.4 8.0 0.00 6.10 6.10 99 1012.9
20260502020610 12 57 6.4 9.7 0.00 6.10 6.10 99 1012.7
20260502020106 12 20 3.2 9.7 0.00 6.10 6.10 99 1012.5
20260502015604 12 332 11.3 20.9 0.00 6.10 6.10 99 1012.5
20260502015100 12 49 3.2 3.2 0.00 6.10 6.10 99 1012.4
20260502014557 12 34 1.6 9.7 0.00 6.10 6.10 99 1012.3
20260502014054 13 93 17.7 22.5 0.18 6.10 6.10 99 1012.2
20260502013549 13 95 3.2 9.7 0.00 6.07 6.07 99 1011.6
20260502013046 13 66 4.8 12.9 0.13 6.07 6.07 99 1011.6
20260502012543 13 332 1.6 4.8 0.30 6.07 6.07 99 1011.4
20260502012041 13 12 11.3 14.5 0.30 6.05 6.05 99 1011.3
20260502011538 13 359 6.4 11.3 0.30 6.02 6.02 99 1011.3
20260502011034 13 39 4.8 16.1 0.18 5.99 5.99 99 1011.4
20260502010532 13 71 1.6 14.5 0.13 5.97 5.97 99 1011.6
20260502010027 13 353 3.2 12.9 0.30 5.94 5.94 99 1011.7
20260502005526 13 16 4.8 16.1 0.48 5.94 5.94 99 1011.5
20260502005023 13 22 3.2 9.7 0.66 5.89 5.89 99 1011.6
20260502004519 13 45 6.4 17.7 0.97 5.84 5.84 99 1011.8
20260502004016 13 2 8.0 12.9 0.61 5.77 5.77 99 1011.8
20260502003514 13 343 6.4 14.5 0.13 5.69 5.69 99 1012.1
20260502003010 13 327 4.8 14.5 0.00 5.66 5.66 99 1011.8
20260502002507 13 344 8.0 12.9 0.18 5.66 5.66 99 1011.5
20260502002004 13 34 3.2 8.0 0.00 5.64 5.64 99 1011.4
20260502001502 14 55 0.0 14.5 0.00 5.64 5.64 99 1011.0
20260502000959 14 58 1.6 8.0 0.00 5.64 5.64 99 1010.8
20260502000457 14 5 6.4 12.9 0.00 5.64 5.64 99 1010.9
20260501235953 14 349 8.0 11.3 0.00 5.64 5.64 99 1010.7
20260501235449 14 16 8.0 11.3 0.13 5.64 5.64 99 1011.2
20260501234944 14 14 4.8 9.7 0.13 5.64 5.64 99 1011.2
20260501234441 14 27 4.8 24.1 0.18 5.61 5.61 99 1010.9
20260501233940 15 25 3.2 8.0 0.30 5.61 5.61 99 1010.9
20260501233437 15 89 1.6 4.8 0.30 5.59 5.59 99 1011.3
20260501232933 15 31 1.6 9.7 0.48 5.56 5.56 99 1011.3
20260501232430 15 56 0.0 8.0 0.36 5.51 5.51 99 1011.7
20260501231927 15 174 0.0 3.2 0.61 5.49 5.49 99 1012.0
20260501231426 15 45 1.6 4.8 0.61 5.44 5.44 99 1011.9
20260501230923 15 358 1.6 4.8 0.30 5.38 5.38 99 1012.0
20260501230422 15 13 3.2 4.8 0.00 5.33 5.33 99 1012.2
20260501225919 15 118 1.6 4.8 0.30 5.33 5.33 99 1012.2
20260501225417 15 44 1.6 3.2 0.43 5.31 5.31 99 1012.1
20260501224912 15 66 0.0 4.8 0.79 5.28 5.28 99 1012.0
20260501224410 15 7 1.6 8.0 0.97 5.23 5.23 99 1011.7
20260501223906 15 5 3.2 11.3 0.71 5.13 5.13 99 1011.0
20260501223403 15 20 3.2 8.0 0.79 5.05 5.05 99 1010.6
20260501222858 15 53 1.6 8.0 0.89 4.98 4.98 99 1010.9
20260501222356 15 68 3.2 3.2 0.97 4.90 4.90 99 1011.3
20260501221852 15 78 1.6 1.6 1.07 4.83 4.83 99 1011.2
20260501221349 15 56 4.8 4.8 0.89 4.72 4.72 99 1011.4
20260501220848 15 55 4.8 4.8 0.89 4.65 4.65 99 1011.5
20260501220345 15 44 1.6 3.2 0.79 4.55 4.55 99 1011.8
20260501215841 15 38 1.6 9.7 0.71 4.47 4.47 99 1011.9
20260501215337 15 332 6.4 8.0 0.89 4.42 4.42 99 1011.9
20260501214833 15 19 1.6 4.8 0.97 4.34 4.34 99 1012.2
20260501214328 15 358 1.6 3.2 0.79 4.27 4.27 99 1012.2
20260501213824 15 332 3.2 4.8 0.61 4.19 4.19 99 1012.3
20260501213321 15 62 0.0 1.6 0.48 4.11 4.11 99 1011.6
20260501212817 15 45 3.2 8.0 0.71 4.09 4.09 99 1010.8
20260501212313 15 24 4.8 8.0 0.61 4.01 4.01 99 1010.7
20260501211811 15 74 3.2 8.0 0.48 3.96 3.96 99 1010.5
20260501211308 15 55 0.0 4.8 0.30 3.89 3.89 99 1010.7
20260501210805 15 357 3.2 3.2 0.43 3.86 3.86 99 1010.7
20260501210302 15 58 3.2 8.0 0.61 3.81 3.81 99 1010.9
20260501205758 15 55 4.8 9.7 0.43 3.76 3.76 99 1010.4
20260501205255 15 63 4.8 8.0 0.30 3.71 3.71 99 1010.0
20260501204752 15 39 6.4 8.0 0.30 3.68 3.68 99 1009.4
20260501204249 15 93 3.2 9.7 0.48 3.66 3.66 99 1009.6
20260501203745 15 98 3.2 9.7 0.48 3.63 3.63 99 1009.5
20260501203242 15 22 4.8 17.7 0.30 3.58 3.58 99 1008.4
20260501202739 15 76 6.4 8.0 0.48 3.56 3.56 99 1009.3
20260501202236 15 90 8.0 11.3 0.61 3.51 3.51 99 1009.3
20260501201733 15 55 3.2 9.7 0.79 3.45 3.45 99 1009.9
20260501201230 15 45 0.0 3.2 0.79 3.38 3.38 99 1010.7
20260501200726 15 41 3.2 8.0 2.29 3.33 3.33 99 1010.8
20260501200224 15 42 1.6 9.7 1.80 3.20 3.20 99 1011.4
20260501195721 15 58 1.6 8.0 0.13 2.92 2.92 99 1010.9
20260501195217 15 254 4.8 9.7 0.00 2.90 2.90 99 1011.5